STARLINK-31977, 59892

Orbit data source: Space-Track

STARLINK-31977, 59892 is a payload satellite owned by SpaceX/Seattle (US) in LEO that was launched on Tue, 28 May 2024 UTC via an FALCON 9 launch vehicle from the Air Force Eastern Test Range (AFETR). Payload-class satellites include a variety of spacecraft equipped with specific instruments for various scientific and technological missions. These include communications satellites like Starlink; space stations such as the ISS; scientific satellites like the Hubble; Earth observation satellites from companies like Planet Labs, Umbra, and HawkEye 360; GPS; miniature CubeSats for education and research; and military/defense satellites.

Loading next visibility...
Identifier
59892, 2024-100H
Orbit
LEO
Country
Flag of USUS
Related business
Manufacturer
SpaceX/Seattle
Mission
Operational spacecraft
Bus & Motor
STARLINK V2M, Unknown motor
Mass
730 kg wet, ~700 kg dry
Launch date (UTC)
2024-05-28 (1 year ago)
Launch vehicle
FALCON 9
Launch site
Air Force Eastern Test Range (AFETR)
Object type
Payload
Rocket body
Debris
Shape & HBR
Unknown
Radar Cross Section
Large (>1 m²)

Expand to show TLE details & history
Last TLE update: 1 day ago

TLE from 1 day ago
0 STARLINK-31977
1 59892U 24100H   25260.04391214 -.00002431  00000-0 -78832-4 0  9993
2 59892  43.0028  18.8222 0000836 279.4511  80.6246 15.27581311 74686
Epoch: 2025-09-17T01:03Z
TLE epoch observation values (Epoch: 2025-09-17T01:03:14.008Z)
Latitude
-0.00005°
Longitude
6.78826°
Altitude
482.728 km
Speed
7.626 km/s
True Right ascension
01h 15m 17s
True Declination
0° 00' 00"
Sunlit
Object was in full shadow at epoch
Visualization orbit readout
Latitude
Unknown
Longitude
Unknown
Altitude
Unknown
Speed
Unknown
Apparent Right ascension
Unknown
Apparent Declination
Unknown
Sunlit
N/A
Visualization observer readout
Local Sidereal Time
17:30:01
Azimuth
Unknown
Elevation
Unknown
Doppler factor
Unknown
Orbital elements
Apogee altitude
485.564 km
Perigee altitude
484.416 km
Semi-major axis
6,863.127 km
Eccentricity
0.00008
Inclination
43.0028°
RAAN
18.8222°
Arg. of periapsis
279.4511°
True anomaly
80.63405°
Mean anomaly
80.6246°
Eccentric anomaly
80.62933°
Mean motion
3.81733 °/min
Orbital period
94.31 mins
BSTAR
-0.000078832
Loading maneuver chart data...
Computing Atmospheric mass density...
Loading historical data...
Loading historical data...
Loading historical data...
Loading historical data...
Loading historical data...
Loading historical data...
Loading historical data...

Documentation

Showing up to 5 results
|